Corpus Christi NAS, TX

5:53 AM CDT on May 28, 2017 (GMT -0500)
Corpus Christi Naval Air Station-Truax

Weather History for KNGP - October, 2013

Change the Weather History Date:

Wednesday, October 16, 2013

  Actual Average Record
Temperature  
Mean Temperature 74 °F -  
Max Temperature 81 °F 80 °F 91 °F (2006)
Min Temperature 66 °F 66 °F 56 °F (2010)
Cooling Degree Days 8    
Growing Degree Days 24 (Base 50)    
Moisture  
Dew Point 69 °F    
Average Humidity 80    
Maximum Humidity 97    
Minimum Humidity 66    
Precipitation  
Precipitation 0.00 in - - ()
Sea Level Pressure  
Sea Level Pressure 29.94 in    
Wind  
Wind Speed 10 mph (North)    
Max Wind Speed 17 mph    
Max Gust Speed 23 mph    
Visibility 10 miles    
Events Rain    
Averages and records for this station are not official NWS values.
T = Trace of Precipitation, MM = Missing Value Source: NWS Daily Summary

Daily Weather History Graph

Daily Weather History Graph

Search for Another Location

Airport or City:

Trip Planner

Search our weather history database for the weather conditions in past years. The results will help you decide how hot, cold, wet, or windy it might be!

Date:

Astronomy

Oct. 16, 2013 Rise Set
Actual Time 7:30 AM CDT 6:58 PM CDT
Civil Twilight 7:06 AM CDT 7:22 PM CDT
Nautical Twilight 6:39 AM CDT 7:49 PM CDT
Astronomical Twilight 6:12 AM CDT 8:16 PM CDT
Moon 5:30 PM CDT (10/16) 5:10 AM CDT (10/16)
Length of Visible Light 12h 15m
Length of Day
11h 28m
Waxing Gibbous, 94% of the Moon is Illuminated
Oct 16
Waxing Gibbous
Oct 18
Full
Oct 26
Last Quarter
Nov 3
New
Nov 9
First Quarter

Hourly Weather History & Observations

Time (CDT) Temp. Heat Index Dew Point Humidity Pressure Visibility Wind Dir Wind Speed Gust Speed Precip Events Conditions
12:56 AM 79.0 °F - 73.0 °F 82% 29.90 in 10.0 mi SSE 9.2 mph - N/A   Partly Cloudy
1:41 AM 79.0 °F - 73.0 °F 82% 29.90 in 10.0 mi SE 6.9 mph - N/A   Mostly Cloudy
1:56 AM 79.0 °F - 73.0 °F 82% 29.90 in 10.0 mi SSE 6.9 mph - N/A   Overcast
2:56 AM 79.0 °F - 73.9 °F 84% 29.88 in 10.0 mi SSE 8.1 mph - N/A   Mostly Cloudy
3:56 AM 79.0 °F - 73.9 °F 84% 29.88 in 10.0 mi South 6.9 mph - N/A   Mostly Cloudy
4:56 AM 78.1 °F - 73.9 °F 87% 29.88 in 10.0 mi South 6.9 mph - N/A   Partly Cloudy
5:56 AM 75.9 °F - 73.0 °F 91% 29.90 in 10.0 mi SSW 4.6 mph - N/A   Clear
6:56 AM 75.0 °F - 73.9 °F 96% 29.91 in 10.0 mi SW 3.5 mph - N/A   Partly Cloudy
7:56 AM 73.9 °F - 73.0 °F 97% 29.91 in 10.0 mi WSW 3.5 mph - N/A   Partly Cloudy
8:56 AM 77.0 °F - 75.0 °F 94% 29.94 in 10.0 mi SW 5.8 mph - 0.00 in Rain Light Rain
9:08 AM 78.1 °F - 75.0 °F 90% 29.94 in 10.0 mi SSW 3.5 mph - 0.00 in   Mostly Cloudy
9:56 AM 81.0 °F 86.7 °F 75.0 °F 82% 29.96 in 10.0 mi West 6.9 mph - 0.00 in   Mostly Cloudy
10:00 AM 78.1 °F - 73.0 °F 84% 29.97 in 10.0 mi North 17.3 mph 23.0 mph N/A   Mostly Cloudy
10:18 AM 72.0 °F - 69.1 °F 91% 29.97 in 10.0 mi North 17.3 mph - N/A   Overcast
10:56 AM 72.0 °F - 68.0 °F 87% 29.98 in 10.0 mi North 16.1 mph - N/A   Mostly Cloudy
11:14 AM 75.0 °F - 68.0 °F 79% 29.98 in 10.0 mi NNE 17.3 mph - N/A   Scattered Clouds
11:56 AM 75.9 °F - 66.9 °F 74% 29.97 in 10.0 mi NNE 16.1 mph - N/A   Scattered Clouds
12:27 PM 77.0 °F - 68.0 °F 74% 29.97 in 10.0 mi North 16.1 mph - N/A   Mostly Cloudy
12:56 PM 77.0 °F - 68.0 °F 74% 29.96 in 10.0 mi North 16.1 mph - N/A   Overcast
1:30 PM 79.0 °F - 68.0 °F 69% 29.94 in 10.0 mi North 15.0 mph - N/A   Overcast
1:56 PM 80.1 °F 82.7 °F 68.0 °F 67% 29.93 in 10.0 mi NNE 13.8 mph - N/A   Mostly Cloudy
2:17 PM 80.1 °F 82.7 °F 68.0 °F 67% 29.93 in 10.0 mi NNE 15.0 mph - N/A   Mostly Cloudy
2:56 PM 79.0 °F - 66.9 °F 66% 29.92 in 10.0 mi NNE 15.0 mph - N/A   Mostly Cloudy
3:56 PM 80.1 °F 82.7 °F 68.0 °F 67% 29.91 in 10.0 mi NNE 11.5 mph - N/A   Mostly Cloudy
4:56 PM 78.1 °F - 66.9 °F 68% 29.91 in 10.0 mi NNE 11.5 mph - N/A   Mostly Cloudy
5:56 PM 78.1 °F - 66.9 °F 68% 29.92 in 10.0 mi NNE 13.8 mph - N/A   Mostly Cloudy
6:56 PM 73.9 °F - 64.9 °F 73% 29.94 in 10.0 mi North 15.0 mph - N/A   Mostly Cloudy
7:56 PM 72.0 °F - 64.9 °F 78% 29.96 in 10.0 mi North 12.7 mph - N/A   Mostly Cloudy
8:15 PM 71.1 °F - 64.0 °F 78% 29.97 in 10.0 mi North 15.0 mph - N/A   Mostly Cloudy
8:56 PM 70.0 °F - 64.0 °F 81% 29.99 in 10.0 mi North 12.7 mph - N/A   Mostly Cloudy
9:56 PM 69.1 °F - 63.0 °F 81% 30.02 in 10.0 mi North 13.8 mph - N/A   Mostly Cloudy
10:56 PM 66.9 °F - 62.1 °F 84% 30.03 in 10.0 mi North 17.3 mph - N/A   Overcast
11:56 PM 66.0 °F - 62.1 °F 87% 30.04 in 10.0 mi NNW 13.8 mph - N/A   Overcast